Regional Weather Roundup
Issued by NWS Goodland, KS

Home | Current Version | Previous Version | Graphics & Text | Print | Product List | Glossary On
Versions: 1 2 3 4 5 6 7 8 9 10 11 12 13 14 15 16 17 18 19 20 21 22 23 24 25 26 27 28 29 30 31 32 33 34 35 36 37 38 39 40 41 42 43 44 45 46 47 48 49 50
000
ASUS43 KGLD 041008
RWRGLD

GOODLAND FORECAST AREA HOURLY WEATHER ROUNDUP
NATIONAL WEATHER SERVICE GOODLAND KS
400 AM MDT TUE AUG 04 2015

...OFFICIAL OBSERVATIONS...

CITY           SKY/WX    TMP DP  RH WIND       PRES   REMARKS
GOODLAND KS    MOCLDY    65  60  84 S5        29.96F
HILL CITY KS   CLOUDY    71  64  78 CALM      29.91F
IMPERIAL NEB   FOG       65  64  97 SE3       29.93F VSB 1/4
MCCOOK NEB     FOG       68  68 100 CALM      29.90F VSB 1/4
AKRON CO       CLEAR     62  52  69 SW9       29.99F
BURLINGTON CO  PTCLDY    64  61  90 SW5       29.99F
LIMON CO       CLEAR     48  48 100 N3        30.05F
$$

...UNOFFICIAL OBSERVATIONS...

CITY           SKY/WX    TMP DP  RH WIND       PRES   REMARKS
COLBY KS       CLEAR     70  64  83 CALM      29.95S
NORTON KS      CLEAR     64  61  88 CALM      29.89
SHARON SPRINGS   N/A     67  64  90 CALM        N/A
KIT CARSON CO    N/A     61  57  88 MISG        N/A
YUMA CO          N/A     59  53  79 S5          N/A
$$


USA.gov is the U.S. government's official web portal to all federal, state and local government web resources and services.